Flag for Argentina Weather past 2 weeks in Zárate, Buenos Aires, Argentina

Now
52 °F

Clear.


Feels Like: 45 °F
Forecast: 43 / 53 °F
Wind: 23 mph from South

Location: Buenos Aires Airport

Current Time: Jul 23, 2014 at 1:11:57 AM

Latest Report: Jul 23, 2014 at 12:00 AM


Visibility: 10 mi

Pressure: 29.92 "Hg

Humidity: 72%

Dew point: 43 °F

Location of ZárateLocation

Historic Weather in Zárate — Graph

°F

Zárate temperature yesterday

Maximum temperature yesterday: 63 °F (at 12:00 AM)
Minimum temperature yesterday: 54 °F (at 9:00 PM)
Average temperature yesterday: 59 °F

Past Weeks' High & Low Weather Summary

 TemperatureHumidityPressure
High68 °F (Jul 19, 5:00 PM)100% (Jul 12, 7:00 PM)30.45 "Hg (Jul 12, 7:00 PM)
Low46 °F (Jul 8, 12:00 AM)51% (Jul 17, 4:00 PM)29.74 "Hg (Jul 22, 10:00 AM)
Average57 °F82%30.12 "Hg
* Reported Midnight between Jul 7 and Jul 8 — Midnight between Jul 22 and Jul 23, Zárate, Weather by CustomWeather, © 2014

Note: Actual official high and low records may vary slightly from our data, if they occured in-between our weather recording intervals... More about our weather records

Advertising

Zárate weather history for previous 24 hours

 ConditionsComfort  
Time TempWeatherWind HumidityBarometerVisibility
12:00 AM
Jul 23
52 °FClear.23 mph72%29.92 "Hg10 mi
11:00 PM
Jul 22
54 °FMostly cloudy.26 mph88%29.92 "HgN/A
10:00 PM54 °FMostly cloudy.20 mph88%29.89 "HgN/A
9:00 PM54 °FLow clouds.22 mph94%29.86 "Hg4 mi
2:00 PM59 °FPartly sunny.5 mph88%29.77 "HgN/A
1:00 PM59 °FBroken clouds.9 mph88%29.77 "HgN/A
12:00 PM59 °FBroken clouds.9 mph94%29.80 "HgN/A
11:00 AM59 °FBroken clouds.6 mph94%29.80 "HgN/A
10:00 AM59 °FRain. Mostly cloudy.23 mph94%29.74 "Hg2 mi
9:00 AM59 °FThunderstorms. Partly sunny.9 mph94%29.80 "Hg2 mi
8:00 AM59 °FThunderstorms. Broken clouds.14 mph94%29.80 "Hg3 mi
7:00 AM59 °FThunderstorms. Cloudy.14 mph94%29.80 "Hg3 mi
6:00 AM59 °FThunderstorms. Mostly cloudy.12 mph94%29.80 "Hg2 mi
5:03 AM59 °FThunderstorms. Mostly cloudy.13 mph100%29.80 "Hg3 mi
4:00 AM59 °FThunderstorms. Overcast.7 mph94%29.83 "Hg3 mi
3:00 AM61 °FThunderstorms. Mostly cloudy.10 mph94%29.86 "Hg3 mi
2:03 AM59 °FThunderstorms. Overcast.8 mph100%29.89 "Hg3 mi
1:45 AM59 °FThunderstorms. Overcast.7 mph100%29.89 "Hg1 mi
1:00 AM61 °FThunderstorms. Overcast.5 mph94%29.86 "Hg5 mi
Weather by CustomWeather, © 2014

See weather overviewHow to use our weather pages